This is the latest recevied weather packets stored in our database for station/object W4MSI. If no packets are shown the sender has not sent any weather packets the latest 10 day(s).
| Time | Temp. | Humidity | Pressure | Rain* | Wind** | Luminosity | Snow |
|---|---|---|---|---|---|---|---|
| 1777708689 | 6.11° C | 89% | 1016.2 hPa | 0 mm | - | 0 W/m² | - |
| 1777708388 | 6.11° C | 88% | 1016.1 hPa | 0 mm | - | 0 W/m² | - |
| 1777708084 | 6.11° C | 88% | 1016 hPa | 0 mm | - | 0 W/m² | - |
| 1777707783 | 6.11° C | 87% | 1016.2 hPa | 0 mm | - | 0 W/m² | - |
| 1777707478 | 6.67° C | 88% | 1016.1 hPa | 0 mm | - | 0 W/m² | - |
| 1777707174 | 6.11° C | 89% | 1016.3 hPa | 0 mm | - | 0 W/m² | - |
| 1777706872 | 6.11° C | 89% | 1016.4 hPa | 0 mm | - | 0 W/m² | - |
| 1777706570 | 6.11° C | 88% | 1016.3 hPa | 0 mm | - | 0 W/m² | - |
| 1777706267 | 6.11° C | 87% | 1016.4 hPa | 0 mm | - | 0 W/m² | - |
| 1777705965 | 6.67° C | 86% | 1016.4 hPa | 0 mm | - | 0 W/m² | - |
| 1777705663 | 6.67° C | 85% | 1016.6 hPa | 0 mm | - | 0 W/m² | - |
| 1777705360 | 6.67° C | 84% | 1016.4 hPa | 0 mm | - | 0 W/m² | - |
| 1777705059 | 6.67° C | 85% | 1016.4 hPa | 0 mm | - | 0 W/m² | - |
| 1777704756 | 7.22° C | 85% | 1016.5 hPa | 0 mm | - | 0 W/m² | - |
| 1777704455 | 7.22° C | 83% | 1016.5 hPa | 0 mm | - | 0 W/m² | - |
| 1777704152 | 7.22° C | 81% | 1016.7 hPa | 0 mm | - | 0 W/m² | - |
| 1777703849 | 7.22° C | 79% | 1016.7 hPa | 0 mm | - | 0 W/m² | - |
| 1777703547 | 7.22° C | 81% | 1016.6 hPa | 0 mm | - | 0 W/m² | - |
| 1777703244 | 6.67° C | 81% | 1016.5 hPa | 0 mm | - | 0 W/m² | - |
| 1777702942 | 6.67° C | 84% | 1016.6 hPa | 0 mm | - | 0 W/m² | - |
| 1777702640 | 6.67° C | 85% | 1016.7 hPa | 0 mm | - | 0 W/m² | - |
| 1777702337 | 6.67° C | 87% | 1016.6 hPa | 0 mm | - | 0 W/m² | - |
| 1777702032 | 6.67° C | 88% | 1016.5 hPa | 0 mm | - | 0 W/m² | - |
| 1777701729 | 6.67° C | 87% | 1016.4 hPa | 0 mm | - | 0 W/m² | - |
| 1777701427 | 6.67° C | 88% | 1016.9 hPa | 0 mm | - | 0 W/m² | - |
* Rain latest hour (hover to see other rain measurements)
** Current wind speed in m/s (hover to see current wind gust speed)